Weather History for Wilmington, OH

Change the Weather History Date:

Tuesday, April 23, 2013

  Actual Average (KDAY) Record (KDAY)
Temperature  
Mean Temperature 58 °F 54 °F  
Max Temperature 69 °F 65 °F 86 °F (1960)
Min Temperature 46 °F 44 °F 26 °F (1986)
Degree Days  
Heating Degree Days 8 11  
Month to date heating degree days 342  
Since 1 July heating degree days 5381  
Cooling Degree Days 0 1  
Month to date cooling degree days 3  
Year to date cooling degree days 3  
Growing Degree Days 8 (Base 50)    
Moisture  
Dew Point 44 °F    
Average Humidity 57    
Maximum Humidity 69    
Minimum Humidity 45    
Precipitation  
Precipitation 0.00 in 0.15 in 1.93 in (1996)
Month to date precipitation 3.11  
Year to date precipitation 11.40  
Snow  
Snow 0.00 in 0.00 in 0.50 in (2005)
Month to date snowfall 0.6  
Since 1 July snowfall 23.3  
Snow Depth -    
Sea Level Pressure  
Sea Level Pressure 30.06 in    
Wind  
Wind Speed 7 mph (South)    
Max Wind Speed 17 mph    
Max Gust Speed 24 mph    
Visibility 10 miles    
Events Rain    
T = Trace of Precipitation, MM = Missing Value Source: NWS Daily Summary

Daily Weather History Graph

Daily Weather History Graph

Search for Another Location

Airport:

Trip Planner

Search our weather history database for the weather conditions in past years. The results will help you decide how hot, cold, wet, or windy it might be!

Date:

Astronomy

Apr. 23, 2013 Rise Set
Actual Time 6:46 AM EDT 8:21 PM EDT
Civil Twilight 6:18 AM EDT 8:49 PM EDT
Nautical Twilight 5:43 AM EDT 9:24 PM EDT
Astronomical Twilight 5:07 AM EDT 10:00 PM EDT
Moon 6:15 PM EDT (4/23) 5:13 AM EDT (4/23)
Length of Visible Light 14h 31m
Length of Day
13h 34m
Waxing Gibbous, 94% of the Moon is Illuminated
Apr 23
Waxing Gibbous
Apr 25
Full
May 2
Last Quarter
May 9
New
May 18
First Quarter

Hourly Weather History & Observations

Time (EDT) Temp. Dew Point Humidity Pressure Visibility Wind Dir Wind Speed Gust Speed Precip Events Conditions
12:54 AM 50.0 °F 39.9 °F 68% 30.17 in 10.0 mi Calm Calm - N/A   Clear
1:54 AM 51.1 °F 37.9 °F 61% 30.16 in 10.0 mi ESE 3.5 mph - N/A   Clear
2:54 AM 48.9 °F 37.0 °F 64% 30.15 in 10.0 mi ESE 3.5 mph - N/A   Clear
3:54 AM 48.0 °F 37.0 °F 66% 30.14 in 10.0 mi SSE 3.5 mph - N/A   Clear
4:54 AM 48.9 °F 35.1 °F 59% 30.13 in 10.0 mi ESE 4.6 mph - N/A   Clear
6:54 AM 46.9 °F 35.1 °F 63% 30.12 in 10.0 mi SE 5.8 mph - N/A   Clear
7:54 AM 50.0 °F 37.0 °F 61% 30.12 in 10.0 mi SSE 4.6 mph - N/A   Clear
8:54 AM 55.0 °F 39.0 °F 55% 30.14 in 10.0 mi South 9.2 mph - N/A   Clear
9:54 AM 60.1 °F 41.0 °F 49% 30.13 in 10.0 mi South 12.7 mph - N/A   Clear
10:54 AM 62.1 °F 43.0 °F 50% 30.12 in 10.0 mi South 15.0 mph - N/A   Clear
11:54 AM 64.9 °F 45.0 °F 48% 30.12 in 10.0 mi SSW 11.5 mph - N/A   Clear
12:54 PM 68.0 °F 46.9 °F 47% 30.10 in 10.0 mi SSW 10.4 mph - N/A   Clear
1:54 PM 69.1 °F 46.9 °F 45% 30.06 in 10.0 mi SSW 13.8 mph 21.9 mph N/A   Clear
2:54 PM 69.1 °F 46.9 °F 45% 30.04 in 10.0 mi SSW 15.0 mph 20.7 mph N/A   Partly Cloudy
3:54 PM 68.0 °F 48.0 °F 49% 30.03 in 10.0 mi SW 13.8 mph - N/A   Mostly Cloudy
4:54 PM 68.0 °F 48.0 °F 49% 30.00 in 10.0 mi SSW 17.3 mph 24.2 mph N/A   Scattered Clouds
5:54 PM 68.0 °F 50.0 °F 52% 29.97 in 10.0 mi South 15.0 mph - N/A   Partly Cloudy
6:54 PM 66.0 °F 50.0 °F 56% 29.97 in 10.0 mi South 13.8 mph - N/A   Overcast
7:54 PM 64.0 °F 50.0 °F 60% 29.95 in 10.0 mi South 9.2 mph - N/A   Overcast
8:54 PM 62.1 °F 51.1 °F 67% 29.94 in 10.0 mi South 8.1 mph - N/A   Mostly Cloudy
9:54 PM 60.1 °F 50.0 °F 69% 29.94 in 10.0 mi SSE 5.8 mph - N/A   Mostly Cloudy
10:54 PM 60.1 °F 50.0 °F 69% 29.92 in 10.0 mi SSE 8.1 mph - 0.00 in Rain Light Rain
11:54 PM 61.0 °F 48.9 °F 64% 29.89 in 10.0 mi South 11.5 mph - 0.00 in   Mostly Cloudy